sat.trackr.live / text

‹ back to catalog

STARLINK-5646

NORAD 55461 · 2023-015N

PAYLOAD ACTIVE UNKNOWN

§ Identity

Operator
Country
US
Launch date
2023-02-02
Launch site
AFETR
Launch vehicle
Mass (kg)
RCS (m²)

Purposes: comms

External: N2YO · Heavens-Above · Gunter

§ Orbital elements

Epoch: 2026-09-20T14:49:20.709120Z

Period
94.27 min
Inclination
43.0023°
Eccentricity
0.0001366
Mean motion
15.27581517 rev/d
Perigee alt
482.1 km
Apogee alt
484.0 km
Semi-major
6,861.2 km
B*
-1.3695e-5
RAAN
307.8828°
Arg perigee
274.8514°
Mean anomaly
85.2182°
Rev number
20,053

§ Raw data

STARLINK-56461 55461U 23015N   26263.61760080 -.00000639  00000+0 -13695-4 0  99962 55461  43.0023 307.8828 0001366 274.8514  85.2182 15.27581517200536

JSON: /api/v1/satellites/55461 · /tle

For live sub-satellite position, see the globe view (requires WebGL).

§ Visibility from observer

Set your observer location to see the next 7 days of passes ≥ 10°. The values pass through the URL so the page stays shareable.

No JS? Fill the form by hand. The geolocation button needs JavaScript.